When you browse on this site, cookies collect data to enhance your experience and personalize the content and advertising you see.
Visit our Privacy Policy to learn more. By continuing to use the site, you agree to this use of cookies and data.
  • In Österreich
  • Länderverzeichnis
  • Für 7 Tage
  • Wassertemperatur
  • Wetterkarte
  • News
  • Widgets
  • user-avatar
    Anmelden

    Stündliche Wetter Viedma

    Heute, 7 Dezember, Samstag

    Zeit Temperatur Niederschläge Wind Luftdruck Luftfeuchtigkeit
    00:00 +13°C° 0 mm 2 m/S 758 mmHg 59%
    01:00 +13°C° 0 mm 2 m/S 758 mmHg 59%
    02:00 +12°C° 0 mm 2 m/S 757 mmHg 58%
    03:00 +12°C° 0 mm 2 m/S 757 mmHg 58%
    04:00 +12°C° 0 mm 2 m/S 757 mmHg 58%
    05:00 +12°C° 0 mm 2 m/S 757 mmHg 58%
    06:00 +14°C° 0 mm 3 m/S 757 mmHg 49%
    07:00 +17°C° 0 mm 4 m/S 758 mmHg 41%
    08:00 +20°C° 0 mm 4 m/S 758 mmHg 34%
    09:00 +22°C° 0 mm 5 m/S 757 mmHg 30%
    10:00 +24°C° 0 mm 6 m/S 757 mmHg 26%
    11:00 +27°C° 0 mm 6 m/S 756 mmHg 22%
    12:00 +28°C° 0 mm 6 m/S 755 mmHg 20%
    13:00 +29°C° 0 mm 5 m/S 754 mmHg 19%
    14:00 +30°C° 0 mm 4 m/S 754 mmHg 18%
    15:00 +29°C° 0 mm 5 m/S 753 mmHg 20%
    16:00 +29°C° 0 mm 5 m/S 752 mmHg 23%
    17:00 +28°C° 0 mm 5 m/S 752 mmHg 25%
    18:00 +25°C° 0 mm 5 m/S 752 mmHg 31%
    19:00 +22°C° 0 mm 4 m/S 752 mmHg 38%
    20:00 +20°C° 0 mm 4 m/S 752 mmHg 44%
    21:00 +19°C° 0 mm 4 m/S 753 mmHg 51%
    22:00 +18°C° 0 mm 3 m/S 753 mmHg 58%
    23:00 +17°C° 0 mm 3 m/S 753 mmHg 66%

    Morgen, 8 Dezember, Sonntag

    Zeit Temperatur Niederschläge Wind Luftdruck Luftfeuchtigkeit
    00:00 +16°C° 0 mm 3 m/S 753 mmHg 68%
    01:00 +16°C° 0 mm 3 m/S 753 mmHg 69%
    02:00 +16°C° 0 mm 2 m/S 753 mmHg 71%
    03:00 +16°C° 0 mm 2 m/S 753 mmHg 69%
    04:00 +16°C° 0 mm 2 m/S 752 mmHg 67%
    05:00 +16°C° 0 mm 2 m/S 752 mmHg 65%
    06:00 +19°C° 0 mm 3 m/S 752 mmHg 53%
    07:00 +22°C° 0 mm 4 m/S 752 mmHg 41%
    08:00 +26°C° 0 mm 5 m/S 752 mmHg 30%
    09:00 +27°C° 0 mm 6 m/S 753 mmHg 28%
    10:00 +28°C° 0 mm 7 m/S 753 mmHg 27%
    11:00 +28°C° 0 mm 8 m/S 753 mmHg 25%
    12:00 +28°C° 0 mm 8 m/S 753 mmHg 27%
    13:00 +27°C° 0 mm 8 m/S 753 mmHg 29%
    14:00 +26°C° 0 mm 7 m/S 753 mmHg 31%
    15:00 +24°C° 0 mm 7 m/S 754 mmHg 36%
    16:00 +23°C° 0 mm 7 m/S 754 mmHg 41%
    17:00 +21°C° 0 mm 7 m/S 754 mmHg 45%
    18:00 +20°C° 0 mm 7 m/S 754 mmHg 50%
    19:00 +17°C° 0 mm 6 m/S 754 mmHg 54%
    20:00 +16°C° 0 mm 6 m/S 754 mmHg 59%
    21:00 +15°C° 0 mm 6 m/S 754 mmHg 60%
    22:00 +15°C° 0 mm 6 m/S 754 mmHg 62%
    23:00 +15°C° 0 mm 6 m/S 754 mmHg 63%

    übermorgen, 9 Dezember, Montag

    Zeit Temperatur Niederschläge Wind Luftdruck Luftfeuchtigkeit
    00:00 +15°C° 0 mm 6 m/S 753 mmHg 65%
    01:00 +15°C° 0 mm 6 m/S 753 mmHg 67%
    02:00 +15°C° 0 mm 6 m/S 753 mmHg 69%
    03:00 +14°C° 0 mm 5 m/S 753 mmHg 73%
    04:00 +14°C° 0 mm 4 m/S 752 mmHg 76%
    05:00 +13°C° 0 mm 4 m/S 752 mmHg 80%
    06:00 +17°C° 0 mm 4 m/S 752 mmHg 68%
    07:00 +20°C° 0 mm 4 m/S 752 mmHg 55%
    08:00 +23°C° 0 mm 5 m/S 752 mmHg 43%
    09:00 +26°C° 0 mm 4 m/S 752 mmHg 36%
    10:00 +28°C° 0 mm 4 m/S 751 mmHg 29%
    11:00 +31°C° 0 mm 3 m/S 751 mmHg 22%
    12:00 +33°C° 0 mm 3 m/S 751 mmHg 21%
    13:00 +33°C° 0 mm 4 m/S 750 mmHg 20%
    14:00 +34°C° 0 mm 4 m/S 750 mmHg 19%
    15:00 +33°C° 0 mm 3 m/S 749 mmHg 18%
    16:00 +33°C° 0 mm 3 m/S 749 mmHg 18%
    17:00 +31°C° 0 mm 2 m/S 749 mmHg 17%
    18:00 +29°C° 0 mm 3 m/S 749 mmHg 24%
    19:00 +26°C° 0 mm 4 m/S 748 mmHg 30%
    20:00 +22°C° 0 mm 5 m/S 748 mmHg 37%
    21:00 +22°C° 0 mm 5 m/S 749 mmHg 41%
    22:00 +21°C° 0 mm 4 m/S 749 mmHg 46%
    23:00 +20°C° 0 mm 4 m/S 749 mmHg 51%

    10 Dezember, Dienstag

    Zeit Temperatur Niederschläge Wind Luftdruck Luftfeuchtigkeit
    00:00 +19°C° 0 mm 3 m/S 749 mmHg 53%
    01:00 +19°C° 0 mm 2 m/S 749 mmHg 55%
    02:00 +19°C° 0 mm 1 m/S 750 mmHg 56%
    03:00 +18°C° 0 mm 2 m/S 750 mmHg 55%
    04:00 +18°C° 0 mm 2 m/S 750 mmHg 53%
    05:00 +19°C° 0 mm 3 m/S 751 mmHg 51%
    06:00 +20°C° 0 mm 5 m/S 751 mmHg 46%
    07:00 +22°C° 0 mm 6 m/S 751 mmHg 40%
    08:00 +24°C° 0 mm 7 m/S 752 mmHg 35%
    09:00 +26°C° 0 mm 7 m/S 752 mmHg 32%
    10:00 +27°C° 0 mm 7 m/S 752 mmHg 29%
    11:00 +28°C° 0 mm 7 m/S 752 mmHg 26%
    12:00 +29°C° 0 mm 7 m/S 752 mmHg 25%
    13:00 +29°C° 0 mm 6 m/S 752 mmHg 24%
    14:00 +30°C° 0 mm 5 m/S 752 mmHg 23%
    15:00 +29°C° 0 mm 4 m/S 751 mmHg 23%
    16:00 +29°C° 0 mm 3 m/S 751 mmHg 22%
    17:00 +29°C° 0 mm 2 m/S 750 mmHg 22%
    18:00 +27°C° 0 mm 4 m/S 750 mmHg 29%
    19:00 +23°C° 0 mm 5 m/S 750 mmHg 36%
    20:00 +21°C° 0 mm 7 m/S 749 mmHg 43%
    21:00 +20°C° 0 mm 6 m/S 749 mmHg 46%
    22:00 +20°C° 0 mm 5 m/S 749 mmHg 49%
    23:00 +19°C° 0 mm 4 m/S 749 mmHg 53%

    11 Dezember, Mittwoch

    Zeit Temperatur Niederschläge Wind Luftdruck Luftfeuchtigkeit
    00:00 +19°C° 0 mm 4 m/S 749 mmHg 54%
    01:00 +18°C° 0 mm 3 m/S 749 mmHg 55%
    02:00 +18°C° 0 mm 3 m/S 748 mmHg 56%
    03:00 +18°C° 0 mm 4 m/S 748 mmHg 54%
    04:00 +19°C° 0 mm 4 m/S 748 mmHg 52%
    05:00 +19°C° 0 mm 4 m/S 748 mmHg 49%
    06:00 +21°C° 0 mm 6 m/S 748 mmHg 43%
    07:00 +23°C° 0 mm 7 m/S 748 mmHg 36%
    08:00 +26°C° 0 mm 9 m/S 748 mmHg 29%
    09:00 +27°C° 0 mm 9 m/S 748 mmHg 26%
    10:00 +28°C° 0 mm 8 m/S 748 mmHg 23%
    11:00 +29°C° 0 mm 8 m/S 748 mmHg 19%
    12:00 +29°C° 0 mm 8 m/S 748 mmHg 18%
    13:00 +31°C° 0 mm 8 m/S 747 mmHg 17%
    14:00 +30°C° 0 mm 7 m/S 747 mmHg 15%
    15:00 +29°C° 0 mm 7 m/S 747 mmHg 16%
    16:00 +28°C° 0 mm 7 m/S 746 mmHg 17%
    17:00 +27°C° 0 mm 7 m/S 746 mmHg 18%
    18:00 +24°C° 0 mm 7 m/S 747 mmHg 20%
    19:00 +23°C° 0 mm 7 m/S 747 mmHg 22%
    20:00 +21°C° 0 mm 6 m/S 748 mmHg 24%
    21:00 +18°C° 0 mm 7 m/S 750 mmHg 39%
    22:00 +16°C° 0 mm 8 m/S 751 mmHg 54%
    23:00 +12°C° 0 mm 9 m/S 752 mmHg 70%

    12 Dezember, Donnerstag

    Zeit Temperatur Niederschläge Wind Luftdruck Luftfeuchtigkeit
    00:00 +12°C° 0 mm 9 m/S 753 mmHg 67%
    01:00 +11°C° 0 mm 8 m/S 753 mmHg 65%
    02:00 +11°C° 0 mm 8 m/S 754 mmHg 63%
    03:00 +11°C° 0 mm 8 m/S 754 mmHg 61%
    04:00 +11°C° 0 mm 8 m/S 755 mmHg 59%
    05:00 +11°C° 0 mm 9 m/S 755 mmHg 57%
    06:00 +11°C° 0 mm 9 m/S 756 mmHg 55%
    07:00 +12°C° 0 mm 9 m/S 757 mmHg 52%
    08:00 +12°C° 0 mm 10 m/S 757 mmHg 49%
    09:00 +13°C° 0 mm 10 m/S 758 mmHg 45%
    10:00 +14°C° 0 mm 10 m/S 758 mmHg 41%
    11:00 +16°C° 0 mm 10 m/S 758 mmHg 38%
    12:00 +16°C° 0 mm 9 m/S 758 mmHg 37%
    13:00 +17°C° 0 mm 8 m/S 758 mmHg 37%
    14:00 +17°C° 0 mm 7 m/S 758 mmHg 37%
    15:00 +17°C° 0 mm 7 m/S 758 mmHg 35%
    16:00 +17°C° 0 mm 6 m/S 758 mmHg 34%
    17:00 +17°C° 0 mm 5 m/S 758 mmHg 33%
    18:00 +16°C° 0 mm 6 m/S 758 mmHg 41%
    19:00 +14°C° 0 mm 6 m/S 759 mmHg 49%
    20:00 +13°C° 0 mm 6 m/S 759 mmHg 57%
    21:00 +12°C° 0 mm 5 m/S 759 mmHg 61%
    22:00 +11°C° 0 mm 4 m/S 759 mmHg 66%
    23:00 +10°C° 0 mm 3 m/S 759 mmHg 70%
    Mehr zeigen